Weather Roundup
Issued by NWS Chicago, IL

Home | Current Version | Previous Version | Graphics & Text | Print | Product List | Glossary On
Versions: 1 2 3 4 5 6 7 8 9 10 11 12 13 14 15 16 17 18 19 20 21 22 23 24 25 26 27 28 29 30 31 32 33 34 35 36 37 38 39 40 41 42 43 44 45 46 47 48 49 50
000
NZUS59 KLOT 261600
HRRLOT

CHICAGO AREA WEATHER ROUNDUP
NATIONAL WEATHER SERVICE CHICAGO/ROMEOVILLE IL
1000 AM CST MON JAN 26 2015

NOTE: "FAIR" INDICATES FEW OR NO CLOUDS BELOW 12,000 FEET WITH NO
SIGNIFICANT WEATHER AND/OR OBSTRUCTIONS TO VISIBILITY.

* THESE STATIONS ARE NOT UNDER NWS QUALITY CONTROL. THEY ALSO MAY NOT
  REPORT WEATHER SUCH AS PRECIPITATION OR FOG.

ILZ005-006-012>014-019>023-261700-
NORTHEAST ILLINOIS

CITY           SKY/WX    TMP DP  RH WIND       PRES   REMARKS
OHARE          CLOUDY    23  15  71 SW3       29.94F
MIDWAY         CLOUDY    25  18  74 VRB3      29.96S
AURORA         CLOUDY    23  15  71 SE3       29.95F
WAUKEGAN       CLOUDY    23  15  71 SW5       29.94S WCI  17
DUPAGE AIRPORT PTSUNNY   22  16  78 S3        29.93F
WHEELING       CLOUDY    23  15  71 CALM      29.96F
NORTHERLY IS     N/A     25  17  72 S1          N/A
$$

WIZ051-052-058>065-066-070>072-261700-
SOUTHEAST WISCONSIN

CITY           SKY/WX    TMP DP  RH WIND       PRES   REMARKS
MILWAUKEE      PTSUNNY   24  15  68 S8        29.93F WCI  15
KENOSHA*       CLOUDY    24  17  74 S6        29.93F WCI  17
RACINE*        CLOUDY    24  15  68 SW6       29.95F WCI  17
WAUKESHA       MOSUNNY   18  12  79 S7        29.92F WCI   8
$$

INZ001>003-010>013-019-020-261700-
NORTHWEST INDIANA

CITY           SKY/WX    TMP DP  RH WIND       PRES   REMARKS
GARY*          MOSUNNY   23   9  54 SW5       29.99R WCI  17
MICHIGAN CITY* NOT AVBL
RENSSELAER*    NOT AVBL
$$

LMZ740>746-261700-
SOUTHERN LAKE MICHIGAN

STATION/POSITION TIME  SKY/WX   TEMP WIND        PRES    VSBY
                                AIR  DIR/SP/G
                 (UTC)          (F)  (DEG/KT/KT) (MB)    (MI)
HARRISON CRIB    1500            22  200/ 10/ 12   N/A
BURNHAM HARBOR   1600            24  190/  5/  9   N/A
CALUMET HARBOR   1500            22  180/  5/  7   N/A
BURNS HARBOR     NOT AVBL
MICHIGAN CITY    1500            16  100/  4/  5   N/A
$$

ABBREVIATIONS USED IN REMARKS
   TC - TEMPERATURE IN CELSIUS
  WCI - WIND CHILL INDEX
   HX - HEAT INDEX
  VSB - VISIBILITY
$$


USA.gov is the U.S. government's official web portal to all federal, state and local government web resources and services.